Weather History for KLOT - January, 2013

Change the Weather History Date:

Tuesday, January 22, 2013

  Actual Average Record
Temperature  
Mean Temperature 6 °F 23 °F  
Max Temperature 12 °F 31 °F 55 °F (2002)
Min Temperature -1 °F 16 °F -5 °F (2014)
Degree Days  
Heating Degree Days 59 42  
Month to date heating degree days 850 921  
Since 1 July heating degree days 3035 3307  
Cooling Degree Days 0 0  
Month to date cooling degree days 0 0  
Year to date cooling degree days 0 0  
Moisture  
Dew Point -6 °F    
Average Humidity 58    
Maximum Humidity 74    
Minimum Humidity 45    
Precipitation  
Precipitation 0.00 in 0.05 in 0.44 in (2012)
Month to date precipitation 1.23 1.47  
Year to date precipitation 1.23 1.47  
Snow  
Snow 0.00 in 0.40 in 4.50 in (2005)
Month to date snowfall 0.4 7.8  
Since 1 July snowfall 1.4 18.0  
Snow Depth 0.00 in    
Sea Level Pressure  
Sea Level Pressure 30.33 in    
Wind  
Wind Speed 11 mph (WNW)    
Max Wind Speed 15 mph    
Max Gust Speed 23 mph    
Visibility 10 miles    
Events      
T = Trace of Precipitation, MM = Missing Value Source: NWS Daily Summary

Daily Weather History Graph

Daily Weather History Graph

Search for Another Location

Airport or City:

Trip Planner

Search our weather history database for the weather conditions in past years. The results will help you decide how hot, cold, wet, or windy it might be!

Date:

Astronomy

Jan. 22, 2013 Rise Set
Actual Time 7:12 AM CST 4:55 PM CST
Civil Twilight 6:42 AM CST 5:26 PM CST
Nautical Twilight 6:08 AM CST 5:59 PM CST
Astronomical Twilight 5:35 AM CST 6:32 PM CST
Moon 1:18 PM CST (1/22) 3:34 AM CST (1/22)
Length of Visible Light 10h 43m
Length of Day
9h 43m
Waxing Gibbous, 83% of the Moon is Illuminated
Jan 22
Waxing Gibbous
Jan 26
Full
Feb 3
Last Quarter
Feb 10
New
Feb 17
First Quarter

Hourly Weather History & Observations

Time (CST) Temp. Windchill Dew Point Humidity Pressure Visibility Wind Dir Wind Speed Gust Speed Precip Events Conditions
12:15 AM 3.7 °F -12.4 °F -5.4 °F 66% 30.27 in 10.0 mi WNW 11.5 mph - N/A   Clear
12:35 AM 3.2 °F -11.3 °F -5.4 °F 67% 30.27 in 10.0 mi NW 9.2 mph - N/A   Clear
12:55 AM 3.4 °F -12.9 °F -6.2 °F 65% 30.27 in 10.0 mi WNW 11.5 mph - N/A   Clear
1:15 AM 3.2 °F -13.9 °F -6.5 °F 64% 30.27 in 10.0 mi NW 12.7 mph 19.6 mph N/A   Clear
1:35 AM 3.2 °F -11.3 °F -6.5 °F 64% 30.27 in 10.0 mi NW 9.2 mph 16.1 mph N/A   Clear
1:55 AM 2.8 °F -14.3 °F -6.2 °F 66% 30.28 in 10.0 mi NW 12.7 mph - N/A   Clear
2:15 AM 2.7 °F -13.8 °F -6.7 °F 65% 30.29 in 10.0 mi NW 11.5 mph 18.4 mph N/A   Clear
2:35 AM 2.3 °F -14.2 °F -6.7 °F 66% 30.29 in 10.0 mi NW 11.5 mph - N/A   Clear
2:55 AM 2.1 °F -15.2 °F -7.4 °F 64% 30.29 in 10.0 mi NW 12.7 mph 19.6 mph N/A   Clear
3:15 AM 1.9 °F -13.8 °F -7.8 °F 64% 30.30 in 10.0 mi NW 10.4 mph 13.8 mph N/A   Clear
3:35 AM 1.6 °F -13.3 °F -7.6 °F 65% 30.30 in 10.0 mi NW 9.2 mph - N/A   Clear
3:55 AM 1.4 °F -14.5 °F -6.9 °F 68% 30.30 in 10.0 mi NW 10.4 mph - N/A   Clear
4:15 AM 1.2 °F -14.7 °F -7.6 °F 67% 30.30 in 10.0 mi NW 10.4 mph - N/A   Clear
4:35 AM 0.9 °F -13.1 °F -6.9 °F 70% 30.31 in 10.0 mi NW 8.1 mph - N/A   Scattered Clouds
4:55 AM 0.5 °F -14.6 °F -8.0 °F 68% 30.31 in 10.0 mi NW 9.2 mph - N/A   Scattered Clouds
5:15 AM 0.3 °F -12.6 °F -8.5 °F 66% 30.32 in 10.0 mi NW 6.9 mph - N/A   Clear
5:35 AM 0.1 °F -15.1 °F -8.5 °F 67% 30.32 in 10.0 mi NW 9.2 mph - N/A   Clear
5:55 AM 0.1 °F -15.1 °F -8.5 °F 67% 30.33 in 10.0 mi NW 9.2 mph - N/A   Clear
6:15 AM -0.4 °F -15.7 °F -8.3 °F 69% 30.34 in 10.0 mi WNW 9.2 mph - N/A   Clear
6:35 AM -0.8 °F -12.5 °F -7.8 °F 72% 30.34 in 10.0 mi WNW 5.8 mph - N/A   Clear
6:55 AM -0.9 °F -12.7 °F -7.6 °F 73% 30.34 in 10.0 mi WNW 5.8 mph - N/A   Clear
7:15 AM -0.6 °F -14.9 °F -7.8 °F 72% 30.34 in 10.0 mi WNW 8.1 mph - N/A   Clear
7:35 AM -0.4 °F -13.4 °F -7.4 °F 72% 30.35 in 10.0 mi WNW 6.9 mph - N/A   Clear
7:55 AM 0.3 °F -15.8 °F -6.3 °F 74% 30.36 in 10.0 mi WNW 10.4 mph - N/A   Clear
8:15 AM 0.9 °F -15.1 °F -6.9 °F 70% 30.37 in 10.0 mi WNW 10.4 mph - N/A   Clear
8:35 AM 1.2 °F -13.7 °F -8.0 °F 65% 30.37 in 10.0 mi WNW 9.2 mph - N/A   Clear
8:55 AM 2.3 °F -14.2 °F -7.6 °F 63% 30.37 in 10.0 mi WNW 11.5 mph - N/A   Clear
9:15 AM 2.7 °F -14.5 °F -7.2 °F 63% 30.38 in 10.0 mi West 12.7 mph - N/A   Clear
9:35 AM 3.4 °F -12.9 °F -6.9 °F 62% 30.38 in 10.0 mi WNW 11.5 mph - N/A   Clear
9:55 AM 4.1 °F -13.4 °F -6.5 °F 61% 30.38 in 10.0 mi WNW 13.8 mph - N/A   Clear
10:15 AM 4.8 °F -9.3 °F -6.3 °F 60% 30.38 in 10.0 mi WNW 9.2 mph 16.1 mph N/A   Clear
10:35 AM 5.4 °F -11.1 °F -6.3 °F 59% 30.38 in 10.0 mi WNW 12.7 mph - N/A   Clear
10:55 AM 5.7 °F -9.1 °F -5.6 °F 60% 30.37 in 10.0 mi WNW 10.4 mph - N/A   Clear
11:15 AM 7.5 °F -7.7 °F -5.1 °F 56% 30.37 in 10.0 mi WNW 11.5 mph - N/A   Clear
11:35 AM 7.3 °F -9.3 °F -5.8 °F 55% 30.35 in 10.0 mi WSW 13.8 mph - N/A   Scattered Clouds
11:55 AM 8.4 °F -6.5 °F -5.8 °F 52% 30.36 in 10.0 mi WSW 11.5 mph 20.7 mph N/A   Clear
12:15 PM 9.0 °F -6.6 °F -6.3 °F 50% 30.35 in 10.0 mi WNW 12.7 mph 19.6 mph N/A   Clear
12:35 PM 9.7 °F -6.3 °F -6.7 °F 48% 30.34 in 10.0 mi West 13.8 mph 19.6 mph N/A   Clear
12:55 PM 10.2 °F -6.3 °F -6.5 °F 47% 30.33 in 10.0 mi WNW 15.0 mph 23.0 mph N/A   Clear
1:15 PM 10.9 °F -5.4 °F -6.2 °F 46% 30.33 in 10.0 mi WNW 15.0 mph 20.7 mph N/A   Clear
1:35 PM 10.9 °F -4.1 °F -6.7 °F 45% 30.33 in 10.0 mi WNW 12.7 mph 20.7 mph N/A   Clear
1:55 PM 11.8 °F -2.3 °F -5.1 °F 47% 30.33 in 10.0 mi West 11.5 mph - N/A   Clear
2:15 PM 11.7 °F -3.8 °F -4.9 °F 48% 30.33 in 10.0 mi WNW 13.8 mph 19.6 mph N/A   Clear
2:35 PM 12.4 °F -2.9 °F -4.7 °F 46% 30.32 in 10.0 mi West 13.8 mph 17.3 mph N/A   Clear
2:55 PM 12.0 °F -3.4 °F -4.9 °F 47% 30.32 in 10.0 mi West 13.8 mph 19.6 mph N/A   Scattered Clouds
3:15 PM 11.5 °F -2.7 °F -4.4 °F 49% 30.33 in 10.0 mi West 11.5 mph - N/A   Scattered Clouds
3:35 PM 12.2 °F -3.1 °F -4.5 °F 47% 30.32 in 10.0 mi West 13.8 mph 18.4 mph N/A   Clear
3:55 PM 11.1 °F -3.9 °F -5.1 °F 48% 30.32 in 10.0 mi WNW 12.7 mph 17.3 mph N/A   Clear
4:15 PM 11.1 °F -3.9 °F -4.7 °F 49% 30.32 in 10.0 mi WNW 12.7 mph - N/A   Clear
4:35 PM 11.1 °F -1.6 °F -4.2 °F 50% 30.32 in 10.0 mi WNW 9.2 mph - N/A   Clear
4:55 PM 10.9 °F -3.4 °F -4.0 °F 51% 30.32 in 10.0 mi WNW 11.5 mph - N/A   Clear
5:15 PM 11.1 °F -2.4 °F -4.0 °F 51% 30.32 in 10.0 mi WNW 10.4 mph - N/A   Clear
5:35 PM 10.9 °F -2.6 °F -3.5 °F 52% 30.32 in 10.0 mi WNW 10.4 mph 16.1 mph N/A   Clear
5:55 PM 10.4 °F -3.3 °F -3.5 °F 54% 30.32 in 10.0 mi WNW 10.4 mph - N/A   Scattered Clouds
6:15 PM 10.8 °F 0.0 °F -2.9 °F 54% 30.32 in 10.0 mi WNW 6.9 mph - N/A   Clear
6:35 PM 10.9 °F -0.8 °F -3.1 °F 53% 30.32 in 10.0 mi WNW 8.1 mph - N/A   Clear
6:55 PM 11.1 °F -3.2 °F -2.9 °F 53% 30.32 in 10.0 mi WNW 11.5 mph - N/A   Clear
7:15 PM 11.1 °F -1.6 °F -3.3 °F 52% 30.31 in 10.0 mi WNW 9.2 mph - N/A   Clear
7:35 PM 11.1 °F -4.5 °F -2.9 °F 53% 30.32 in 10.0 mi WNW 13.8 mph - N/A   Clear
7:55 PM 10.9 °F -4.7 °F -3.5 °F 52% 30.32 in 10.0 mi WNW 13.8 mph - N/A   Clear
8:15 PM 10.9 °F -4.1 °F -3.5 °F 52% 30.32 in 10.0 mi West 12.7 mph - N/A   Clear
8:35 PM 10.8 °F -2.8 °F -3.1 °F 54% 30.32 in 10.0 mi WNW 10.4 mph - N/A   Clear
8:55 PM 10.8 °F -2.8 °F -3.1 °F 54% 30.32 in 10.0 mi WNW 10.4 mph - N/A   Clear
9:15 PM 10.9 °F -3.4 °F -2.7 °F 54% 30.33 in 10.0 mi WNW 11.5 mph - N/A   Clear
9:35 PM 11.1 °F -1.6 °F -2.9 °F 53% 30.33 in 10.0 mi WNW 9.2 mph - N/A   Clear
9:55 PM 11.1 °F -2.4 °F -3.1 °F 53% 30.33 in 10.0 mi WNW 10.4 mph - N/A   Mostly Cloudy
10:15 PM 11.1 °F -3.9 °F -3.5 °F 52% 30.32 in 10.0 mi WNW 12.7 mph - N/A   Overcast
10:35 PM 10.9 °F -3.4 °F -4.0 °F 51% 30.33 in 10.0 mi WNW 11.5 mph - N/A   Overcast
10:55 PM 11.1 °F 0.4 °F -3.5 °F 52% 30.33 in 10.0 mi WNW 6.9 mph - N/A   Overcast
11:15 PM 11.3 °F -1.3 °F -2.9 °F 53% 30.33 in 10.0 mi WNW 9.2 mph - N/A   Overcast
11:35 PM 11.3 °F -2.2 °F -3.1 °F 52% 30.34 in 10.0 mi WNW 10.4 mph - N/A   Overcast
11:55 PM 11.1 °F -0.6 °F -2.4 °F 55% 30.34 in 10.0 mi West 8.1 mph - N/A   Overcast